This demonstration page uses our WeatherBlox Daily Observations layout. Learn more.

Left ArrowRight Arrow

36.17497, -115.13722

Hourly Observations for July 18, 2020

Temp ( °F °C ) Dew Point ( °F °C ) Humidity (%) Winds ( mph kmh ) Pressure ( in mb ) Visibility ( mi km ) Precip ( " mm )
12:53 am 00:53 Clear 92 33.3 39 3.9 16 16 SE 6 9 29.83 1010 10 16 0.00 0.00
1:53 am 01:53 Clear 90 32.2 40 4.4 17 17 NE 3 6 29.84 1011 10 16 0.00 0.00
2:53 am 02:53 Clear 89 31.7 41 5 19 19 Calm 29.84 1011 10 16 0.00 0.00
3:53 am 03:53 Clear 84 28.9 40 4.4 21 21 NW 5 7 29.85 1011 10 16 0.00 0.00
4:53 am 04:53 Clear 83 28.3 41 5 23 23 NNW 7 11 29.86 1011 10 16 0.00 0.00
5:53 am 05:53 Sunny 82 27.8 40 4.4 22 22 NNW 5 7 29.88 1012 10 16 0.00 0.00
6:53 am 06:53 Sunny 85 29.4 40 4.4 20 20 NNW 6 9 29.90 1013 10 16 0.00 0.00
7:53 am 07:53 Sunny 91 32.8 41 5 17 17 N 5 7 29.92 1013 10 16 0.00 0.00
8:53 am 08:53 Sunny 94 34.4 40 4.4 15 15 SE 3 6 29.93 1013 10 16 0.00 0.00
9:53 am 09:53 Sunny 97 36.1 40 4.4 14 14 SE 9 15 29.92 1013 10 16 0.00 0.00
10:53 am 10:53 Sunny 99 37.2 40 4.4 13 13 VRB 3 6 29.92 1013 10 16 0.00 0.00
11:53 am 11:53 Sunny 101 38.3 40 4.4 12 12 VRB 6 9 29.90 1013 10 16 0.00 0.00
12:53 pm 12:53 Sunny 106 41.1 38 3.3 10 10 NE 6 9 29.88 1012 10 16 0.00 0.00
1:53 pm 13:53 Sunny 106 41.1 36 2.2 9 9 SSW 6 9 29.85 1011 10 16 0.00 0.00
2:53 pm 14:53 Sunny 108 42.2 33 0.6 7 7 SE 6 9 29.83 1010 10 16 0.00 0.00
3:53 pm 15:53 Sunny 110 43.3 29 -1.7 6 6 SSE 16 26 29.80 1009 10 16 0.00 0.00
4:53 pm 16:53 Sunny 109 42.8 28 -2.2 6 6 SW 7 11 29.78 1009 10 16 0.00 0.00
5:53 pm 17:53 Sunny 109 42.8 29 -1.7 6 6 SSE 7 11 29.77 1008 10 16 0.00 0.00
6:53 pm 18:53 Sunny 108 42.2 30 -1.1 7 7 Calm 29.75 1008 10 16 0.00 0.00
7:53 pm 19:53 Sunny 106 41.1 34 1.1 8 8 SE 7 11 29.75 1008 10 16 0.00 0.00
8:53 pm 20:53 Clear 105 40.6 26 -3.3 6 6 WSW 3 6 29.77 1008 10 16 0.00 0.00
9:53 pm 21:53 Clear 101 38.3 28 -2.2 8 8 Calm 29.78 1008 10 16 0.00 0.00
10:53 pm 22:53 Clear 97 36.1 33 0.6 10 10 W 7 11 29.78 1009 10 16 0.00 0.00
11:53 pm 23:53 Clear 94 34.4 29 -1.7 10 10 NW 7 11 29.79 1009 10 16 0.00 0.00

Powered by AerisWeather